Find Muduo 1A

NORAD ID: 100466 Int'l Des: NNA 2026-195 Owner: BNU Country: CN operational
別名: OBJECT B spacetrack, celestrak

現在のビュー

3D地球を読み込み中...

About Muduo 1A

Muduo 1A (NORAD 100466) is a satellite launched Aug 25, 2026 by BNU of CN. with a mass of 50.00 kg.

次回通過

Passes for default location (London). Set your location on the main map for personalized predictions.

高度履歴

Loading altitude history...

軌道要素

1 A0466U 26195B 26263.44007021 .00003054 00000-0 19479-3 0 9991
2 A0466 97.5375 336.7951 0011244 172.4230 187.7171 15.09399545 3969
Epoch: Sep 20, 2026 • Age: 23 hours

現在のステータス

高度 533.0 km
遠地点 / 近地点 N/A
速度 7.60 km/s
衛星直下点 19.94°N, 17.06°E
打ち上げ日 Aug 25, 2026
運用期間 27 days
タイプ other

技術仕様

分類 Payload
質量 50.00 kg
直径 0.30 m
スパン 1.00 m
形状 Box + 2 pan
製造者 TYSK
バスタイプ ESP50
フェーズステータス In Orbit
所有者/国 BNU/CN

Most Searched